GEFSCGP_con_probscp_222.txt.gz
Probability
0 0 0 0 0 0 0 0 0 0 0 0 0 0 0 0 1 5 10 13 14 13 12 11 9 9 16 26 31 33 33 34 32 29 28 27 24 19 16 16 16 17 18 18
0 0 0 0 0 0 0 0 0 0 0 0 0 0 0 0 0 3 8 12 13 12 12 12 10 9 15 25 31 33 34 33 29 26 25 24 21 17 16 16 15 16 17 17
0 0 0 0 0 0 0 0 0 0 0 0 0 0 1 1 0 1 5 9 11 12 12 12 11 11 17 27 31 33 34 31 26 22 20 20 19 17 16 15 15 15 17 17
0 0 0 0 0 0 0 0 0 0 0 0 0 1 3 2 1 1 3 7 9 11 13 13 12 14 21 29 32 31 29 26 22 19 17 18 19 17 16 15 15 16 17 17
0 0 0 0 0 0 0 0 0 0 0 0 0 1 3 3 2 2 3 6 9 10 12 12 13 15 20 26 28 25 20 19 18 16 15 16 16 16 16 16 16 17 17 17
0 0 0 0 0 0 0 0 0 0 0 0 0 1 3 3 3 3 5 7 8 9 10 12 14 15 17 20 21 18 14 14 15 14 13 11 11 14 16 17 16 16 16 16
0 0 0 0 0 0 0 0 0 0 0 0 0 1 3 4 4 5 6 7 8 9 10 12 15 17 17 18 18 15 14 14 16 16 14 11 11 14 18 19 18 17 17 16
0 0 0 0 0 0 0 0 0 0 0 0 0 1 2 2 3 4 6 7 8 8 9 12 16 18 18 18 18 16 16 17 19 19 17 15 15 16 18 20 20 19 18 17
0 0 0 0 0 0 0 0 0 0 0 0 0 0 0 1 2 4 5 7 8 8 9 12 15 18 18 17 16 15 16 18 19 18 17 17 17 16 17 19 20 20 19 17
0 0 0 0 0 0 0 0 0 0 0 0 0 0 0 1 2 3 4 6 7 8 9 12 15 17 16 15 13 13 14 15 16 15 14 14 14 14 15 17 19 19 18 16
0 0 0 0 0 0 0 0 0 0 0 0 0 0 0 0 1 1 3 5 6 7 8 11 14 15 14 13 12 11 11 12 13 14 14 13 11 11 13 15 16 16 15 14
0 0 0 0 0 0 0 0 0 0 0 0 0 0 0 0 0 1 2 3 5 5 6 9 12 12 11 11 10 10 9 9 11 13 14 13 12 11 12 13 12 11 10 10
0 0 0 0 0 0 0 0 0 0 0 0 0 0 0 0 0 0 1 2 3 4 6 7 8 7 7 7 8 7 6 7 8 9 12 14 14 13 13 12 11 10 9 8
1 0 0 0 0 0 0 0 0 0 0 0 0 0 0 0 0 0 0 1 3 4 5 6 5 4 3 4 5 4 5 5 5 6 10 16 17 15 13 11 10 8 7 7
1 0 0 0 0 0 0 0 0 0 0 0 0 0 0 0 0 0 0 1 3 4 4 4 3 2 2 2 3 3 4 5 4 5 10 14 17 16 13 9 6 5 5 5
1 0 0 0 0 0 0 0 0 0 0 0 0 0 0 0 0 0 0 1 2 2 2 1 1 1 1 2 3 4 5 5 5 5 6 9 11 12 10 7 4 3 4 4
0 0 0 0 0 0 0 0 0 0 0 0 0 0 0 0 0 0 0 1 1 1 1 0 0 0 0 2 5 5 5 4 4 2 2 3 5 7 6 4 3 3 4 5
0 0 0 0 0 0 0 0 0 0 0 0 0 0 0 0 0 0 0 1 2 1 0 0 0 0 0 2 4 4 2 1 1 0 0 0 1 2 3 2 2 3 4 4
0 0 0 0 0 0 0 0 0 0 0 0 0 0 0 0 0 0 0 1 1 1 0 0 0 0 0 0 1 1 0 0 0 0 0 0 0 0 1 2 3 3 3 3
0 0 0 0 0 0 0 0 0 0 0 0 0 0 0 0 0 0 0 0 0 0 0 0 0 0 0 0 0 0 0 0 0 0 0 0 0 0 1 3 3 3 3 3
0 0 0 0 0 0 0 0 0 0 0 0 0 0 0 0 0 0 0 0 0 0 0 0 0 0 0 0 0 0 0 0 0 0 0 0 0 0 2 3 3 3 3 3
0 0 0 0 0 0 0 0 0 0 0 0 0 0 0 0 0 0 0 0 0 0 0 0 0 0 0 0 0 0 0 0 0 0 0 0 0 0 1 3 3 3 3 3
0 0 0 0 0 0 0 0 0 0 0 0 0 0 0 0 0 0 0 0 0 0 0 0 0 0 0 0 1 1 0 0 0 0 0 0 0 0 1 2 2 2 2 2
0 0 0 0 0 0 0 0 0 0 0 0 0 0 0 0 0 0 0 0 0 0 0 0 0 1 1 1 1 1 0 0 0 0 0 0 0 0 0 1 1 1 1 1
0 0 0 0 0 0 0 0 0 0 0 0 0 0 0 0 0 0 0 0 0 0 0 0 0 1 2 2 1 1 0 0 0 0 0 0 0 0 0 0 0 0 0 0
0 0 0 0 0 0 0 0 0 0 0 0 0 0 0 0 0 0 0 0 0 0 0 0 0 1 2 1 0 0 0 0 0 0 0 0 0 0 0 0 0 0 0 0

GEFSCGP_con_probscp_228.txt.gz
Probability
0 0 0 0 0 0 0 0 0 0 0 0 0 1 3 6 9 11 12 12 12 13 18 26 29 30 33 38 42 43 45 52 57 57 55 50 44 37 30 27 25 23 20 18
0 0 0 0 0 0 0 0 0 0 0 0 0 1 4 7 9 11 14 16 15 16 20 27 29 28 32 36 39 41 43 48 53 54 53 49 43 35 28 24 24 23 20 19
0 0 0 0 0 0 0 0 0 0 0 1 1 2 5 7 9 10 13 16 16 16 20 26 27 27 31 35 38 39 39 41 46 49 49 44 37 30 24 22 25 25 21 19
0 0 0 0 0 0 0 0 0 0 0 1 2 3 5 7 8 9 10 12 12 13 16 21 24 26 30 35 36 36 35 36 40 45 45 38 30 25 23 24 26 25 22 19
0 0 0 0 0 0 0 0 0 0 0 0 1 3 5 6 6 7 9 10 10 12 14 17 21 24 27 31 32 31 32 34 36 39 39 34 26 22 23 24 24 24 21 18
0 0 0 0 0 0 0 0 0 0 0 0 0 1 3 4 5 5 8 11 12 12 13 14 19 23 24 26 28 29 30 33 35 34 33 30 25 22 23 23 22 20 18 16
0 0 0 0 0 0 0 0 0 0 0 0 0 0 1 2 3 4 6 11 12 11 10 13 18 21 21 22 24 27 29 31 33 31 27 25 24 22 21 21 20 18 15 15
0 0 0 0 0 0 0 0 0 0 0 0 0 0 0 1 3 4 5 9 11 10 9 13 17 20 20 20 23 26 27 28 30 28 25 22 21 19 18 19 19 17 16 16
0 0 0 0 0 0 0 0 0 0 0 0 0 0 1 2 4 5 5 6 9 9 10 13 16 18 20 22 24 24 24 25 25 24 22 18 17 17 17 19 18 17 17 17
0 0 0 0 0 0 0 0 0 0 0 0 0 0 1 2 4 4 4 4 6 7 9 12 14 16 19 22 23 21 20 20 21 21 18 15 14 16 19 19 18 17 17 17
0 0 0 0 0 0 0 0 0 0 0 0 0 0 1 2 3 2 2 2 4 5 8 11 14 15 16 17 17 16 16 18 20 20 19 16 14 16 19 19 18 17 17 17
0 0 0 0 0 0 0 0 0 0 1 0 0 1 2 2 1 1 1 2 2 4 7 11 13 12 11 11 11 12 14 16 18 20 20 19 17 18 19 20 19 19 18 18
0 0 0 0 0 0 0 0 0 0 0 0 0 1 1 1 0 1 2 2 3 4 9 11 11 9 8 9 10 11 13 14 15 16 17 18 19 21 22 22 21 21 19 18
0 0 0 0 0 0 0 0 0 0 0 0 0 0 1 1 1 2 3 4 4 7 11 11 9 6 6 8 10 11 12 12 11 11 11 13 17 20 22 23 23 22 19 18
0 0 0 0 0 0 0 0 0 0 0 0 0 0 2 2 2 3 5 5 7 8 10 9 6 4 4 6 8 9 10 10 9 9 8 10 13 17 19 21 21 19 18 17
0 0 0 0 0 0 0 0 0 0 0 0 0 0 2 3 4 5 6 6 6 6 6 5 5 3 3 4 6 7 8 8 9 9 8 9 10 13 15 16 14 13 13 14
0 0 0 0 0 0 0 0 0 0 0 0 0 0 1 3 5 6 6 4 3 2 2 4 5 4 3 4 6 6 6 6 7 8 7 7 8 9 10 10 10 9 9 10
1 1 0 0 0 0 0 0 0 0 0 0 0 0 1 3 4 5 4 2 0 0 2 4 5 4 3 4 5 6 5 4 4 5 4 4 5 6 6 6 7 7 6 5
1 1 0 0 0 0 0 0 0 0 1 0 0 0 1 2 2 2 1 0 0 2 4 5 5 4 4 4 5 6 4 3 2 2 2 2 3 4 4 4 5 6 5 4
2 1 0 0 0 0 0 0 0 0 0 0 0 0 1 1 0 0 0 1 2 4 6 7 6 5 5 5 5 5 3 2 2 1 1 2 3 4 4 4 5 6 5 5
1 1 0 0 0 0 0 0 0 0 0 1 1 1 1 1 0 0 1 3 4 5 5 5 5 5 6 6 6 4 2 1 1 0 1 3 3 4 5 5 6 6 4 3
0 0 0 0 0 0 0 0 0 0 0 1 2 2 2 1 0 1 2 4 4 4 3 3 3 5 6 7 6 4 1 0 1 1 2 3 4 4 5 6 6 4 2 1
0 0 0 0 0 0 0 0 0 0 0 1 1 1 1 0 1 2 3 3 2 1 1 2 3 4 6 7 7 4 1 0 1 2 3 3 3 4 5 6 5 3 1 1
0 0 0 0 0 0 0 0 0 0 0 0 0 0 0 0 1 3 3 2 1 2 2 3 3 3 5 6 6 4 1 1 2 3 3 3 3 4 5 5 4 2 1 0
0 0 0 0 0 0 0 0 0 0 0 0 0 0 0 1 2 3 2 1 1 3 4 4 4 3 2 3 4 3 2 2 3 4 4 4 3 4 4 4 2 1 0 0
0 0 0 0 0 0 0 0 0 0 0 0 0 0 0 1 2 3 2 1 2 3 4 4 4 3 1 2 3 4 3 3 4 5 4 4 3 4 3 2 1 0 0 0

GEFSCGP_con_probscp_234.txt.gz
Probability
0 0 0 0 0 0 0 0 0 0 0 0 0 0 0 0 1 3 5 6 7 9 11 9 9 13 17 19 20 19 18 19 21 23 24 23 20 15 11 9 7 7 10 12
0 0 0 0 0 0 0 0 0 0 0 0 0 0 0 1 2 4 6 6 7 9 10 9 10 14 18 19 21 20 19 20 22 22 22 21 19 16 12 9 6 6 8 10
0 0 0 0 0 0 0 0 0 0 0 0 0 0 1 2 3 5 6 6 6 7 8 8 10 15 18 19 20 20 19 21 21 19 18 18 17 16 13 9 5 4 5 6
0 0 0 0 0 0 0 0 0 0 0 0 0 0 1 2 3 4 5 6 6 6 6 7 10 13 14 16 18 19 19 20 19 16 13 13 13 13 11 7 4 2 2 2
0 0 0 0 0 0 0 0 0 0 0 0 0 0 0 1 1 1 3 4 5 6 6 7 9 10 10 11 15 18 19 18 15 12 9 8 9 9 7 5 3 1 1 2
0 0 0 0 0 0 0 0 0 0 0 0 0 0 0 0 0 0 2 4 6 7 8 7 7 7 8 10 13 16 16 14 11 8 5 6 7 7 5 3 2 1 2 3
0 0 0 0 0 0 0 0 0 0 0 0 0 0 0 0 0 0 2 4 6 7 8 8 6 6 8 9 11 12 13 10 7 4 3 4 6 6 4 2 1 1 2 2
0 0 0 0 0 0 0 0 0 0 0 0 0 0 0 0 0 0 1 2 3 6 8 8 6 5 6 8 8 9 9 7 5 3 2 3 4 4 2 1 0 1 1 1
0 0 0 0 0 0 0 0 0 0 0 0 0 0 0 0 0 0 0 0 2 5 7 7 5 5 5 6 6 6 5 4 4 4 4 4 4 3 2 1 1 1 0 0
0 0 0 0 0 0 0 0 0 0 0 0 0 0 0 0 0 0 0 0 2 5 6 6 5 4 4 3 3 3 2 2 3 5 6 5 4 3 2 2 2 1 0 0
0 0 0 0 0 0 0 0 0 0 0 0 0 0 0 0 0 0 1 1 2 4 5 5 3 2 1 1 1 1 0 1 2 4 5 5 3 2 1 1 2 1 0 0
0 0 0 0 0 0 0 0 0 0 0 0 0 0 0 0 0 1 2 2 3 4 4 2 1 0 0 1 1 0 0 0 1 2 3 3 2 1 0 0 0 0 0 0
0 0 0 0 0 0 0 0 0 0 0 0 0 0 0 1 1 1 2 3 3 3 2 1 0 0 1 2 2 1 0 0 0 1 2 2 1 0 0 0 1 1 0 0
0 0 0 0 0 0 0 0 0 0 0 0 0 0 0 1 1 1 1 2 3 3 1 0 0 0 1 2 2 1 0 0 0 0 1 1 0 0 0 0 1 1 0 0
0 0 0 0 0 0 0 0 0 0 0 0 0 0 0 0 0 0 0 1 2 2 1 0 0 0 0 1 1 1 1 1 1 1 1 1 1 0 0 0 1 1 0 0
0 0 0 0 0 0 0 0 0 0 0 0 0 0 0 1 1 0 0 1 1 1 0 0 0 0 0 1 1 1 2 2 2 2 2 2 1 0 0 0 0 0 0 0
0 0 0 0 0 0 0 0 0 0 0 0 0 0 1 1 1 0 0 0 0 0 0 1 0 0 0 1 2 2 3 3 3 3 2 1 1 0 0 0 0 0 0 0
0 0 0 0 0 0 0 0 0 0 0 0 0 0 1 1 1 0 0 0 0 0 0 0 0 0 0 1 2 2 2 2 2 1 1 1 1 1 1 1 1 0 0 0
0 0 0 0 0 0 0 0 0 0 0 0 0 0 0 0 0 0 0 0 0 0 0 0 0 0 0 0 1 1 1 1 1 1 2 2 2 2 2 2 1 0 0 0
0 0 0 0 0 0 0 0 0 0 0 0 0 0 0 0 0 0 0 0 0 0 0 0 0 0 0 0 0 0 0 0 0 1 2 3 3 3 3 2 1 0 0 0
0 0 0 0 0 0 0 0 0 0 0 0 0 0 0 0 0 0 0 0 0 0 0 0 0 0 0 0 0 0 0 0 0 0 1 2 2 2 2 1 0 0 0 0
0 0 0 0 0 0 0 0 0 0 0 0 0 0 0 0 0 0 0 0 0 0 0 0 0 0 0 0 0 0 0 0 0 0 0 1 1 1 1 0 0 0 0 0
0 0 0 0 0 0 0 0 0 0 0 0 0 0 0 0 0 0 0 0 0 0 0 0 0 0 0 0 0 0 0 0 0 0 0 0 0 0 0 0 0 0 0 0
0 0 0 0 0 0 0 0 0 0 0 0 0 0 0 0 0 0 0 0 0 0 0 0 0 0 0 0 0 0 0 0 0 0 0 0 0 0 0 0 0 0 0 0
0 0 0 0 0 0 0 0 0 0 0 0 0 0 0 0 0 0 0 0 0 0 0 0 0 0 0 0 0 0 0 0 0 0 0 0 0 0 0 0 0 0 0 0
0 0 0 0 0 0 0 0 0 0 0 0 0 0 0 0 0 0 0 0 0 0 0 0 0 0 0 0 0 0 0 0 0 0 0 0 0 0 0 0 0 0 0 0

GEFSCGP_con_probscp_240.txt.gz
Probability
0 0 0 0 0 0 0 0 0 0 0 0 0 0 1 1 2 2 2 1 2 3 3 4 3 2 2 4 6 7 7 7 6 6 6 5 5 6 6 8 11 13 12 12
0 0 0 0 0 0 0 0 0 0 0 0 0 0 1 1 1 1 1 2 3 3 3 3 3 1 1 4 7 8 8 8 6 5 5 6 6 6 7 8 10 10 10 9
0 0 0 0 0 0 0 0 0 0 0 0 0 0 0 0 0 1 2 4 4 4 3 3 3 1 1 3 6 7 8 8 6 5 5 7 7 7 7 9 9 8 6 5
0 0 0 0 0 0 0 0 0 0 0 0 0 0 0 0 1 2 3 5 5 4 3 3 3 2 2 2 3 5 6 6 6 6 6 7 7 7 7 9 8 5 3 3
0 0 0 0 0 0 0 0 0 0 0 0 0 0 0 0 1 2 3 4 5 5 4 4 4 3 1 1 3 3 3 4 6 6 6 7 7 6 6 6 4 2 1 1
0 0 0 0 0 0 0 0 0 0 0 0 0 0 0 0 1 1 2 2 4 5 5 5 4 3 1 1 2 2 1 2 3 4 4 5 6 6 5 4 3 1 0 0
0 0 0 0 0 0 0 0 0 0 0 0 0 0 0 0 0 0 1 1 1 3 5 4 3 3 2 1 0 0 0 0 1 1 1 2 3 5 5 4 3 1 0 0
0 0 0 0 0 0 0 0 0 0 0 0 0 0 0 0 0 0 0 0 0 1 3 2 1 2 1 0 0 1 1 0 0 0 0 0 1 3 4 4 3 1 1 1
0 0 0 0 0 0 0 0 0 0 0 0 0 0 0 0 0 0 1 1 0 1 1 1 0 1 0 0 0 1 1 0 0 0 0 0 0 1 1 2 2 2 2 2
0 0 0 0 0 0 0 0 0 0 0 0 0 0 0 0 0 1 2 2 1 0 1 0 0 1 0 0 0 1 1 0 0 0 0 0 0 0 0 1 1 2 2 2
0 0 0 0 0 0 0 0 0 0 0 0 0 0 0 0 0 1 2 2 1 0 1 0 0 0 0 0 0 0 0 0 0 0 0 0 0 0 1 1 1 1 1 1
0 0 0 0 0 0 0 0 0 0 0 0 0 0 0 0 0 0 1 1 1 0 0 0 0 0 0 0 0 0 0 0 0 0 0 0 0 1 1 2 2 1 0 0
0 0 0 0 0 0 0 0 0 0 0 0 0 0 0 0 0 0 0 1 1 1 0 0 0 0 0 0 0 0 0 0 0 0 0 0 0 1 2 2 2 1 0 0
0 0 0 0 0 0 0 0 0 0 0 0 0 0 0 0 0 0 0 1 1 1 0 0 0 0 0 0 0 0 0 0 0 1 1 1 1 1 1 1 1 0 0 0
0 0 0 0 0 0 0 0 0 0 0 0 0 0 0 0 0 0 0 0 0 0 0 0 0 0 0 0 0 0 0 0 0 1 1 2 2 2 1 0 0 0 0 0
0 0 0 0 0 0 0 0 0 0 0 0 0 0 0 0 0 0 0 0 0 0 0 0 0 0 0 0 0 0 0 0 0 0 1 2 2 1 1 0 0 0 0 0
0 0 0 0 0 0 0 0 0 0 0 0 0 0 0 0 0 0 0 0 0 0 0 0 0 0 0 0 0 0 0 0 0 0 1 1 1 0 0 0 0 0 0 0
0 0 0 0 0 0 0 0 0 0 0 0 0 0 0 0 0 0 0 0 0 0 0 0 0 0 0 0 0 0 0 0 0 0 0 0 0 0 0 0 0 0 0 0
0 0 0 0 0 0 0 0 0 0 0 0 0 0 0 0 0 0 0 0 0 0 0 0 0 0 0 0 0 0 0 0 0 0 0 0 0 0 0 0 0 0 0 0
0 0 0 0 0 0 0 0 0 0 0 0 0 0 0 0 0 0 0 0 0 0 0 0 0 0 0 0 0 0 0 0 0 0 0 0 0 0 0 0 0 0 0 0
0 0 0 0 0 0 0 0 0 0 0 0 0 0 0 0 0 0 0 0 0 0 0 0 0 0 0 0 0 0 0 0 0 0 0 0 0 0 0 0 0 0 0 0
0 0 0 0 0 0 0 0 0 0 0 0 0 0 0 0 0 0 0 0 0 0 0 0 0 0 0 0 0 0 0 0 0 0 0 0 0 0 0 0 0 0 0 0
0 0 0 0 0 0 0 0 0 0 0 0 0 0 0 0 0 0 0 0 0 0 0 0 0 0 0 0 0 0 0 0 0 0 0 0 0 0 0 0 0 0 0 0
0 0 0 0 0 0 0 0 0 0 0 0 0 0 0 0 0 0 0 0 0 0 0 0 0 0 0 0 0 0 0 0 0 0 0 0 0 0 0 0 0 0 0 0
0 0 0 0 0 0 0 0 0 0 0 0 0 0 0 0 0 0 0 0 0 0 0 0 0 0 0 0 0 0 0 0 0 0 0 0 0 0 0 0 0 0 0 0
0 0 0 0 0 0 0 0 0 0 0 0 0 0 0 0 0 0 0 0 0 0 0 0 0 0 0 0 0 0 0 0 0 0 0 0 0 0 0 0 0 0 0 0